Torna al catalogo

YAOGAN-30 X

AttivoMilitareVLEO
NORAD 48423·PAYLOAD·🇨🇳 China

Lanciato May 6, 2021 da Xichang Satellite Launch Center

Loading…

Prossimi Passaggi (prossime 24 ore)

TLE

AggiornatoSource: Space-Track

Epoca: Sep 14, 2026, 13:57 UTC

1 48423U 21039A   26257.58130141  .00002100  00000-0  15493-3 0  9999
2 48423  34.9966 206.6430 0003143 107.0900 253.0153 15.03035285293004

Traccia YAOGAN-30 X in tempo reale con AllMySat

Download on the App Store